027  
ASUS41 KGYX 231110  
RWRGYX  
WEATHER ROUNDUP FOR MAINE AND NEW HAMPSHIRE  
NATIONAL WEATHER SERVICE GRAY ME  
700 AM EDT TUE JUL 23 2019  
 
MEZ002-005-006-010-012-015-018-020-021-024-026-027-029-231200-  
MAINE  
 
CITY SKY/WX TMP DP RH WIND PRES REMARKS
 
PORTLAND LGT RAIN 62 58 86 N7 29.85R  
SANFORD RAIN 61 59 94 N10G17 29.86R FOG  
BAR HARBOR LGT RAIN 60 58 92 NW3 29.84R  
WISCASSET LGT RAIN 60 58 92 VRB3 29.85R  
ROCKLAND LGT RAIN 60 59 96 CALM 29.84R  
FRYEBURG CLOUDY 61 58 90 NW3 29.86R  
LEWISTONAUBURN CLOUDY 60 57 89 N3 29.85S  
AUGUSTA CLOUDY 60 58 92 NW5 29.86R  
WATERVILLE FAIR 60 58 92 NW5 29.83R  
BANGOR CLOUDY 61 58 90 NW3 29.84R  
GREENVILLE N/A 58 54 86 NW3 29.84S  
MILLINOCKET PTSUNNY 59 54 83 CALM 29.85R  
HOULTON FAIR 57 53 86 CALM 29.82S  
PRESQUE ISLE FAIR 53 52 96 CALM 29.84F  
FRENCHVILLE FAIR 54 50 86 SE3 29.83S  
CARIBOU FAIR 55 52 89 CALM 29.83S  

 
 
NHZ002-005-008-009-011-012-014-231200-  
NEW HAMPSHIRE  
 
CITY SKY/WX TMP DP RH WIND PRES REMARKS
 
PORTSMOUTH RAIN 62 61 97 N5 29.82S FOG  
ROCHESTER RAIN 61 59 93 N5 29.84R FOG  
NASHUA RAIN 63 63 100 NW5 29.84R  
MANCHESTER LGT RAIN 64 62 93 N7 29.82S  
CONCORD LGT RAIN 61 59 93 NE5 29.85R  
LACONIA RAIN 61 60 97 E6 29.86R FOG  
PLYMOUTH RAIN 61 60 95 W3 29.85R  
BERLIN LGT RAIN 59 56 89 CALM 29.87S  
WHITEFIELD LGT RAIN 59 57 93 CALM 29.87R  
JAFFREY LGT RAIN 62 60 93 VRB5 29.85R FOG  
KEENE RAIN 63 62 97 CALM 29.84S  
LEBANON RAIN 63 59 87 N7 29.86R FOG  
MT WASHINGTON LGT RAIN 44 44 98 N8 N/A  

 
 
VTZ005-007-008-231200-  
VERMONT  
 
CITY SKY/WX TMP DP RH WIND PRES REMARKS
 
ST JOHNSBURY N/A 60 60 100 MISG 29.85R  
MONTPELIER LGT RAIN 60 60 100 CALM 29.91R  
BURLINGTON PTSUNNY 64 59 83 CALM 29.86R  

 
 
MAZ007-012-024-CTZ003-RIZ002-NYZ038-NYZ072-231200-  
SOUTHERN NEW ENGLAND AND NY  
 
CITY SKY/WX TMP DP RH WIND PRES REMARKS
 
BOSTON HVY RAIN 66 63 90 NE15 29.81R FOG  
WORCESTER RAIN 61 61 100 N6 29.83R FOG  
NANTUCKET FAIR 72 71 97 SE5 29.79R  
PROVIDENCE LGT RAIN 66 66 100 N13 29.74F  
HARTFORD RAIN 63 62 97 N10 29.77F FOG  
ALBANY LGT RAIN 65 62 90 N7 29.84S  
NEW YORK CITY RAIN 69 65 86 NE10 29.73R FOG  

 
 
ANZ081-ANZ082-ANZ150-NHZ014-MEZ023>029-231200-  
COASTAL MARINE OBSERVATIONS  
 
STATION/POSITION TIME TEMP WIND PRES WAVE
 
AIR SEA DIR/SP/G HT/PER  
(UTC) (F) (DEG/KT/KT) (MB) (FT/S)  
ISLE OF SHOALS 1000 63 50/ 18/ 20 1008.4R  
JEFFREYS LEDGE 1008 67 N/A 4/ 5  
CASHES LEDGE BUO 1050 58 59 60/ 14/ 16 1009.1F 3/ 4  
GEORGES BANK BUO 1050 67 61 210/ 12/ 16 1010.4R 4/ 6  

 
   
............KEY...........
 
 
WCI - WIND CHILL  
TC - TEMPERATURE IN CELSIUS  
VSB - VISIBILITY
IN MILES  
HX - HEAT INDEX  
FAIR- INDICATES FEW OR NO CLOUDS BELOW 12,000 FT, WITH NO  
SIGNIFICANT WEATHER AND/OR S TO VISIBILITY.  
 
 
 
CLICK HERE TO GO TO PREVIOUS BULLETINS.

The Nexlab ME Page
The Nexlab NH Page Main Text Page